Location: Dötzum
(52.0808°N, 9.8063°E)
Time: 04:50:00
(UTC+00:00)

Cosmos 1461 - Pass Details

Date: 27 May 2022
Orbit: 517 x 638 km, 65.0° (Epoch: 26 June)

Event Time Altitude Azimuth Distance (km) Brightness Sun altitude
Rises 00:04:58 0° 308° (NW) 2,739 6.7 -15.9°
Reaches altitude 10° 00:07:38 10° 290° (WNW) 1,863 5.6 -15.9°
Maximum altitude 00:10:35 19° 245° (WSW) 1,398 4.5 -15.8°
Enters shadow 00:10:54 19° 239° (WSW) 1,406 4.5 -15.7°
